COSMOS 2251 DEB, 47045

Orbit data source: Space-Track

COSMOS 2251 DEB, 47045 is space debris in LEO originally from a launch on Wed, 16 Jun 1993 UTC launched from the Plesetsk Missile And Space Complex (PKMTR). The debris from Iridium 33, an American commercial communications satellite, has been tracked extensively since its accidental collision with the defunct Russian satellite Cosmos 2251 in 2009. This event, occurring at high speed in low Earth orbit (LEO), generated thousands of pieces of space debris, significantly increasing the risk of further collisions. The Iridium 33 debris cloud has impacted space traffic management and orbital debris mitigation strategies, making it a subject of ongoing study in space situational awareness.

Loading next visibility...
Identifier
47045, 1993-036BWZ
Orbit
LEO
Country
Flag of CISCIS
Related business
Manufacturer
Unknown
Mission
Spacecraft
Bus & Motor
Unknown
Mass
Unknown
Launch date (UTC)
1993-06-16 (32 years ago)
Launch vehicle
Unknown
Launch site
Plesetsk Missile And Space Complex (PKMTR)
Object type
Payload
Rocket body
Debris
Shape & HBR
Unknown shape, 0.1 m
Radar Cross Section
Small (<0.1 m²)

Expand to show TLE details & history
Last TLE update: 2 days ago

TLE from 2 days ago
0 COSMOS 2251 DEB
1 47045U 93036BWZ 25309.03896558  .00000265  00000-0  94122-4 0  9999
2 47045  74.0588 218.6008 0029027   7.4277  14.0476 14.38868636 72639
Epoch: 2025-11-05T00:56Z
TLE epoch observation values (Epoch: 2025-11-05T00:56:06.626Z)
Latitude
20.70199°
Longitude
166.21934°
Altitude
744.392 km
Speed
7.495 km/s
True Right ascension
14h 59m 03s
True Declination
20° 35' 18"
Sunlit
Object was in daylight at epoch
Visualization orbit readout
Latitude
Unknown
Longitude
Unknown
Altitude
Unknown
Speed
Unknown
Apparent Right ascension
Unknown
Apparent Declination
Unknown
Sunlit
N/A
Visualization observer readout
Local Sidereal Time
22:10:56
Azimuth
Unknown
Elevation
Unknown
Doppler factor
Unknown
Orbital elements
Apogee altitude
780.577 km
Perigee altitude
739.138 km
Semi-major axis
7,137.995 km
Eccentricity
0.0029
Inclination
74.0588°
RAAN
218.6008°
Arg. of periapsis
7.4277°
True anomaly
14.12862°
Mean anomaly
14.0476°
Eccentric anomaly
14.08808°
Mean motion
3.59897 °/min
Orbital period
100.03 mins
BSTAR
0.000094122

Documentation

Showing up to 5 results
|